Regional Weather Roundup
Issued by NWS

Home | Current Version | Previous Version | Graphics & Text | Print | Product List | Glossary Off
Versions: 1 2 3 4 5 6 7 8 9 10 11 12 13 14 15 16 17 18 19 20 21 22 23 24 25 26 27 28 29 30 31 32 33 34 35 36 37 38 39 40 41 42 43 44 45 46 47 48 49 50

000
ASUS43 KTOP 012259
RWRKS

WEATHER ROUNDUP FOR KANSAS
NATIONAL WEATHER SERVICE GOODLAND KS
500 PM CST SUN MAR 01 2015

NOTE:  "FAIR" INDICATES FEW OR NO CLOUDS BELOW 12,000 FEET WITH NO
SIGNIFICANT WEATHER AND/OR OBSTRUCTIONS TO VISIBILITY.

KSZ001>006-013>018-027>032-041>047-020000-
NORTHWEST KANSAS

CITY           SKY/WX    TMP DP  RH WIND       PRES   REMARKS
GOODLAND       CLOUDY    33  16  49 NE8       30.27S
HAYS           PTSUNNY   34  14  44 N3        30.35S
HILL CITY      PTSUNNY   36  19  50 E5        30.34R
RUSSELL        MOSUNNY   35  19  52 N8        30.34S
$$

KSZ061>065-074>080-084>089-020000-
SOUTHWEST KANSAS

CITY           SKY/WX    TMP DP  RH WIND       PRES   REMARKS
DODGE CITY     CLOUDY    30  20  66 N8        30.32S
ELKHART          N/A     28  20  72 N7          N/A
GARDEN CITY    CLOUDY    29  20  69 N7        30.31S
GREAT BEND     MOSUNNY   30  19  64 N7        30.36S
LIBERAL        CLOUDY    28  21  74 NE8       30.32F
$$

KSZ066>073-081>083-090>101-020000-
SOUTHEAST KANSAS

CITY           SKY/WX    TMP DP  RH WIND       PRES   REMARKS
CHANUTE        MOSUNNY   32  21  64 N9        30.39S
COFFEYVILLE    CLOUDY    32  23  69 N7        30.41R
HUTCHINSON     MOSUNNY   33  20  58 NW7       30.36F
MEDICINE LODGE   N/A     34  21  59 NE13      30.36S WCI  25
NEWTON         SUNNY     30  19  64 N8        30.38F
PARSONS        PTSUNNY   32  23  69 N7        30.41R
WICHITA INTL   MOSUNNY   31  19  61 NE8       30.38S
WICHITA JABRA  SUNNY     30  20  66 N9        30.37F
WINFIELD       MOSUNNY   31  23  72 N9        30.39F
$$

KSZ007>012-019>026-033>040-048>060-102>105-020000-
NORTHEAST KANSAS

CITY           SKY/WX    TMP DP  RH WIND       PRES   REMARKS
CONCORDIA      MOSUNNY   36  20  52 CALM      30.36R
EMPORIA        SUNNY     33  21  61 N7        30.38S
LAWRENCE       MOSUNNY   35  21  56 NW7       30.40R
MANHATTAN      MOSUNNY   35  20  54 CALM      30.39S
OLATHE IND     MOSUNNY   32  22  66 N8        30.38S
OLATHE EXE     PTSUNNY   33  21  61 N9        30.37R
SALINA         SUNNY     36  20  52 N8        30.39S
TOPEKA BILLARD MOSUNNY   35  21  56 NW7       30.40R
TOPEKA FORBES  PTSUNNY   34  21  59 NW7       30.39R
$$



USA.gov is the U.S. government's official web portal to all federal, state and local government web resources and services.